This demonstration page uses our WeatherBlox Daily Observations layout. Learn more.

Left ArrowRight Arrow

53.62937, 11.41316

Hourly Observations for November 9, 2018

Temp ( °F °C ) Dew Point ( °F °C ) Humidity (%) Winds ( mph kmh ) Pressure ( in mb ) Visibility ( mi km ) Precip ( " mm )
6:50 am 06:50 Mostly Cloudy 36 2 36 2 100 100 Calm 30.09 1019 4 7 N/A
7:20 am 07:20 Mostly Cloudy with Mist and Fog 36 2 36 2 100 100 ENE 2 4 30.09 1019 3 5 N/A
7:50 am 07:50 Partly Cloudy with Mist and Fog 37 3 37 3 100 100 VRB 2 4 30.09 1019 3 5 N/A
8:20 am 08:20 Partly Cloudy with Mist and Fog 41 5 39 4 93 93 E 3 6 30.09 1019 3 5 N/A
8:50 am 08:50 Mostly Cloudy with Drizzle 43 6 43 6 100 100 E 3 6 30.06 1018 3 5 N/A
9:20 am 09:20 Mostly Cloudy with Mist and Fog 43 6 43 6 100 100 ENE 5 7 30.06 1018 3 5 N/A
9:50 am 09:50 Mostly Cloudy with Mist and Fog 45 7 45 7 100 100 VRB 1 2 30.06 1018 2 4 N/A
10:20 am 10:20 Mostly Cloudy with Light Rain 46 8 45 7 93 93 VRB 2 4 30.06 1018 2 4 N/A
10:50 am 10:50 Mostly Cloudy with Light Rain 46 8 46 8 100 100 ENE 3 6 30.06 1018 2 4 N/A
11:20 am 11:20 Partly Cloudy with Light Rain 48 9 46 8 94 94 E 6 9 30.03 1017 3 4 N/A
11:50 am 11:50 Partly Cloudy with Mist and Fog 50 10 48 9 94 94 ESE 6 9 30.03 1017 3 5 N/A
12:20 pm 12:20 Mostly Sunny 50 10 48 9 94 94 SE 5 7 30.03 1017 4 7 N/A
12:50 pm 12:50 Mostly Sunny 52 11 48 9 88 88 SE 6 9 30.00 1016 6 9 N/A
1:20 pm 13:20 Mostly Sunny 52 11 48 9 88 88 SE 6 9 30.00 1016 6 9 N/A
1:50 pm 13:50 Mostly Sunny 54 12 48 9 82 82 SE 6 9 29.97 1015 30 48 N/A
2:20 pm 14:20 Partly Cloudy 54 12 43 6 67 67 SSE 6 9 29.97 1015 30 48 N/A
2:50 pm 14:50 Mostly Sunny 54 12 48 9 82 82 SE 5 7 29.94 1014 30 48 N/A
3:20 pm 15:20 Mostly Sunny 52 11 48 9 88 88 ESE 7 11 29.94 1014 30 48 N/A
3:50 pm 15:50 Mostly Sunny 52 11 48 9 88 88 SE 7 11 29.94 1014 6 9 N/A
4:20 pm 16:20 Mostly Sunny 52 11 46 8 82 82 SE 6 9 29.94 1014 6 9 N/A
4:50 pm 16:50 Mostly Clear 50 10 46 8 88 88 SE 5 7 29.91 1013 4 7 N/A
5:20 pm 17:20 Mostly Clear 50 10 46 8 88 88 ESE 5 7 29.91 1013 4 7 N/A
5:50 pm 17:50 Mostly Clear 50 10 46 8 88 88 SE 6 9 29.91 1013 4 7 N/A
6:20 pm 18:20 Mostly Cloudy 50 10 48 9 94 94 SE 7 11 29.91 1013 4 6 N/A
6:50 pm 18:50 Mostly Cloudy 50 10 48 9 94 94 SSE 5 7 29.91 1013 4 6 N/A

Powered by AerisWeather